Flag for Poland Weather past 2 weeks in Zabrze, Poland

Now
54 °F

Clear.


Feels Like: 52 °F
Forecast: 51 / 70 °F
Wind: 6 mph from East

Location: Katowice Airport

Current Time: Sep 16, 2014 at 6:03:05 AM

Latest Report: Sep 16, 2014 at 5:30 AM


Visibility: 10 mi

Pressure: 30.12 "Hg

Humidity: 88%

Dew point: 50 °F

Location of ZabrzeLocation

Historic Weather in Zabrze — Graph

°F

Zabrze temperature yesterday

Maximum temperature yesterday: 73 °F (at 2:30 PM)
Minimum temperature yesterday: 54 °F (at 2:30 AM)
Average temperature yesterday: 63 °F

Past Weeks' High & Low Weather Summary

 TemperatureHumidityPressure
High79 °F (Sep 8, 3:00 PM)100% (Sep 1, 4:00 AM)30.21 "Hg (Sep 1, 4:00 AM)
Low46 °F (Sep 13, 5:30 AM)44% (Sep 10, 3:00 AM)29.86 "Hg (Sep 1, 4:00 AM)
Average62 °F83%30.03 "Hg
* Reported Sep 1 4:00 AM — Sep 16 4:30 AM, Zabrze, Weather by CustomWeather, © 2014

Note: Actual official high and low records may vary slightly from our data, if they occured in-between our weather recording intervals... More about our weather records

Advertising

Zabrze weather history for previous 24 hours

 ConditionsComfort  
Time TempWeatherWind HumidityBarometerVisibility
4:30 AM
Sep 16
54 °FClear.7 mph88%30.12 "Hg10 mi
4:00 AM54 °FClear.8 mph88%30.12 "Hg10 mi
3:00 AM55 °FClear.7 mph88%30.12 "Hg10 mi
2:30 AM57 °FClear.7 mph82%30.12 "Hg10 mi
2:00 AM57 °FClear.8 mph82%30.12 "Hg10 mi
1:30 AM57 °FClear.7 mph82%30.12 "Hg10 mi
1:00 AM59 °FClear.10 mph82%30.12 "Hg10 mi
12:30 AM61 °FClear.12 mph77%30.12 "Hg10 mi
12:00 AM61 °FClear.12 mph77%30.12 "Hg10 mi
11:30 PM
Sep 15
61 °FClear.10 mph77%30.12 "Hg10 mi
11:00 PM61 °FClear.10 mph77%30.12 "Hg10 mi
10:30 PM61 °FClear.10 mph77%30.12 "Hg10 mi
10:00 PM61 °FClear.12 mph77%30.12 "Hg10 mi
9:30 PM63 °FClear.10 mph77%30.12 "Hg10 mi
9:00 PM63 °FClear.10 mph77%30.12 "Hg10 mi
8:30 PM61 °FClear.8 mph77%30.12 "Hg10 mi
8:00 PM64 °FClear.7 mph73%30.12 "Hg10 mi
7:30 PM66 °FSunny.9 mph68%30.09 "Hg10 mi
7:00 PM68 °FSunny.10 mph64%30.09 "Hg10 mi
6:30 PM68 °FSunny.9 mph64%30.09 "Hg10 mi
6:00 PM70 °FSunny.12 mph60%30.09 "Hg10 mi
5:30 PM72 °FSunny.9 mph61%30.09 "Hg10 mi
5:00 PM72 °FSunny.10 mph61%30.09 "Hg10 mi
4:30 PM73 °FSunny.12 mph50%30.09 "Hg10 mi
4:00 PM73 °FSunny.15 mph53%30.09 "Hg10 mi
3:30 PM73 °FPassing clouds.14 mph53%30.09 "HgN/A
3:00 PM73 °FSunny.16 mph53%30.09 "Hg10 mi
2:30 PM73 °FSunny.15 mph53%30.09 "Hg10 mi
2:00 PM72 °FSunny.14 mph57%30.09 "Hg10 mi
1:30 PM72 °FSunny.15 mph57%30.09 "Hg10 mi
1:00 PM72 °FSunny.14 mph57%30.09 "Hg10 mi
12:30 PM72 °FSunny.14 mph57%30.09 "Hg10 mi
12:00 PM70 °FSunny.12 mph60%30.09 "Hg10 mi
11:30 AM70 °FSunny.12 mph64%30.09 "Hg10 mi
11:00 AM68 °FSunny.13 mph60%30.09 "Hg10 mi
10:30 AM66 °FSunny.13 mph68%30.09 "Hg10 mi
10:00 AM64 °FSunny.14 mph68%30.09 "Hg10 mi
9:30 AM63 °FSunny.12 mph73%30.09 "Hg10 mi
9:00 AM61 °FSunny.12 mph77%30.09 "Hg10 mi
8:30 AM61 °FSunny.10 mph72%30.09 "Hg10 mi
8:00 AM57 °FSunny.9 mph82%30.09 "Hg10 mi
7:30 AM55 °FSunny.6 mph88%30.09 "Hg10 mi
7:00 AM54 °FClear.6 mph88%30.07 "Hg10 mi
6:30 AM54 °FClear.6 mph88%30.07 "Hg10 mi
6:00 AM54 °FPassing clouds.5 mph88%30.07 "HgN/A
Weather by CustomWeather, © 2014

See weather overviewHow to use our weather pages